FW1981 Weather Reports


Display with metric or nautical units.
time (UTC)temp
F
wind
direction
speed
MPH
gust
MPH
rain 1hr
in
rain 24hr
in
rain mn
in
humidity
%
barometer
mb
20260505171520 49 233 7.0 17.0 0.00 0.00 0.00 80 1015.8
20260505161116 50 219 5.0 15.0 0.00 0.00 0.00 79 1015.9
20260505125009 48 218 3.0 12.0 0.00 0.00 0.00 80 1015.1
20260505124516 47 270 4.0 12.0 0.00 0.00 0.00 80 1015.0
20260505124008 47 151 4.0 12.0 0.00 0.00 0.00 80 1014.9
20260505123516 47 302 4.0 15.0 0.00 0.00 0.00 80 1014.9
20260505123008 47 264 5.0 15.0 0.00 0.00 0.00 79 1014.8
20260505122516 47 247 4.0 10.0 0.00 0.00 0.00 80 1015.0
20260505122021 47 255 2.0 10.0 0.00 0.00 0.00 81 1015.0
20260505121516 47 236 3.0 12.0 0.00 0.00 0.00 81 1014.9
20260505121009 46 266 4.0 12.0 0.00 0.00 0.00 80 1014.9
20260505120516 46 117 4.0 11.0 0.00 0.00 0.00 81 1014.7
20260505120009 46 262 4.0 10.0 0.00 0.00 0.00 80 1014.6
20260505115521 46 253 2.0 12.0 0.00 0.00 0.00 82 1014.5
20260505115009 45 249 3.0 12.0 0.00 0.00 0.00 83 1014.4
20260505114517 45 252 2.0 10.0 0.00 0.00 0.00 84 1014.4
20260505114020 44 177 3.0 14.0 0.00 0.00 0.00 84 1014.2
20260505113516 44 246 4.0 14.0 0.00 0.00 0.00 84 1014.2
20260505113009 44 253 4.0 10.0 0.00 0.00 0.00 84 1014.1
20260505112517 44 225 2.0 11.0 0.00 0.00 0.00 85 1014.2
20260505112020 43 188 3.0 11.0 0.00 0.00 0.00 86 1014.0
20260505111517 42 267 3.0 9.0 0.00 0.00 0.00 87 1013.9
20260505111009 42 255 2.0 8.0 0.00 0.00 0.00 87 1013.9
20260505110527 42 231 2.0 9.0 0.00 0.00 0.00 87 1013.9
20260505102031 41 275 3.0 9.0 0.00 0.00 0.00 88 1013.5
20260505101517 41 254 2.0 9.0 0.00 0.00 0.00 88 1013.4
20260505101020 41 288 2.0 7.0 0.00 0.00 0.00 88 1013.5
20260505100517 41 235 3.0 7.0 0.00 0.00 0.00 88 1013.4
20260505100010 41 258 3.0 8.0 0.00 0.00 0.00 89 1013.5
20260505095527 41 244 3.0 9.0 0.00 0.00 0.00 89 1013.2
20260505095008 41 266 3.0 6.0 0.00 0.00 0.00 89 1013.3
20260505094521 41 272 2.0 9.0 0.00 0.00 0.00 89 1013.5
20260505094009 40 276 3.0 9.0 0.00 0.00 0.00 89 1013.4
20260505093517 40 257 2.0 10.0 0.00 0.00 0.00 89 1013.4
20260505093020 40 217 3.0 10.0 0.00 0.00 0.00 88 1013.1
20260505092521 40 133 2.0 10.0 0.00 0.00 0.00 89 1013.3
20260505092010 40 279 3.0 10.0 0.00 0.00 0.00 89 1013.2
20260505091516 40 4 3.0 11.0 0.00 0.00 0.00 89 1013.2
20260505091009 40 248 3.0 11.0 0.00 0.00 0.00 89 1012.8
20260505090517 40 261 4.0 10.0 0.00 0.00 0.00 89 1012.8
20260505090018 40 265 3.0 10.0 0.00 0.00 0.00 89 1013.0
20260505085516 40 242 3.0 6.0 0.00 0.01 0.00 89 1013.0
20260505085009 40 264 1.0 6.0 0.00 0.01 0.00 89 1013.0
20260505084517 40 264 2.0 8.0 0.00 0.01 0.00 89 1013.0
20260505084009 40 271 1.0 8.0 0.00 0.01 0.00 88 1012.8
20260505083517 40 309 2.0 10.0 0.00 0.01 0.00 88 1012.8
20260505083009 40 221 2.0 10.0 0.00 0.01 0.00 88 1012.7
20260505082516 40 283 2.0 8.0 0.00 0.01 0.00 88 1012.6
20260505082020 40 221 3.0 10.0 0.00 0.01 0.00 88 1012.6
20260505081517 40 296 3.0 10.0 0.00 0.01 0.00 88 1012.8
20260505081009 40 318 3.0 10.0 0.00 0.01 0.00 88 1012.8
20260505080532 40 226 2.0 8.0 0.00 0.01 0.00 88 1012.8
20260505080009 40 325 3.0 9.0 0.00 0.01 0.00 88 1012.6
20260505075517 40 269 4.0 10.0 0.00 0.02 0.00 88 1012.6
20260505075009 41 277 4.0 11.0 0.00 0.02 0.00 88 1012.6
20260505074516 41 266 3.0 11.0 0.00 0.02 0.00 88 1012.6
20260505074021 41 214 3.0 9.0 0.00 0.02 0.00 87 1012.5
20260505073528 41 110 3.0 9.0 0.00 0.02 0.00 87 1012.5
20260505073009 41 229 2.0 9.0 0.00 0.02 0.00 87 1012.7
20260505072516 41 236 4.0 9.0 0.00 0.02 0.00 87 1012.5
20260505072009 41 338 4.0 9.0 0.00 0.02 0.00 87 1012.4
20260505071517 41 148 5.0 9.0 0.00 0.02 0.00 87 1012.0
20260505071009 41 14 4.0 9.0 0.00 0.02 0.00 87 1012.0
20260505070517 41 224 2.0 10.0 0.00 0.02 0.00 87 1011.9
20260505070010 41 233 2.0 10.0 0.00 0.02 0.00 87 1011.8
20260505065516 41 246 3.0 9.0 0.00 0.09 0.00 87 1011.8
20260505065010 41 273 3.0 15.0 0.00 0.09 0.00 86 1011.8
20260505064527 41 205 2.0 15.0 0.00 0.09 0.00 86 1011.7
20260505064009 41 271 3.0 9.0 0.00 0.09 0.00 86 1011.8
20260505063516 41 245 2.0 12.0 0.00 0.09 0.00 86 1012.0
20260505063009 41 250 4.0 12.0 0.00 0.09 0.00 86 1011.7
20260505062522 41 29 3.0 12.0 0.00 0.09 0.00 87 1011.5
20260505062009 41 209 5.0 12.0 0.00 0.09 0.00 87 1011.5
20260505061530 41 233 3.0 8.0 0.00 0.09 0.00 87 1011.6
20260505061020 41 305 2.0 9.0 0.00 0.09 0.00 86 1011.4
20260505060516 41 78 3.0 9.0 0.00 0.09 0.00 86 1011.4
20260505060011 41 126 3.0 14.0 0.00 0.09 0.00 86 1011.4
20260505055516 41 179 3.0 14.0 0.00 0.16 0.00 85 1011.3
20260505055009 42 255 4.0 13.0 0.00 0.16 0.00 85 1011.4
20260505054517 41 302 3.0 13.0 0.00 0.16 0.00 86 1011.2
20260505054009 41 256 2.0 10.0 0.00 0.16 0.00 86 1011.3
20260505053517 41 273 2.0 10.0 0.00 0.16 0.00 86 1011.2
20260505053009 41 241 3.0 11.0 0.00 0.16 0.00 86 1011.3
20260505052517 41 221 2.0 11.0 0.00 0.16 0.00 86 1011.2
20260505052010 41 203 3.0 13.0 0.00 0.16 0.00 87 1011.2
20260505051528 41 219 3.0 13.0 0.00 0.16 0.00 87 1011.1
20260505051009 41 219 3.0 12.0 0.00 0.16 0.00 87 1011.2
20260505050517 41 287 3.0 12.0 0.00 0.16 0.00 87 1011.1
20260505041518 41 32 2.0 12.0 0.00 0.17 0.00 87 1010.8
20260505041009 41 256 3.0 11.0 0.00 0.17 0.00 87 1010.6
20260505040517 41 254 3.0 11.0 0.00 0.17 0.00 87 1010.5
20260505040020 41 294 2.0 9.0 0.00 0.17 0.00 87 1010.3
20260505035517 41 252 3.0 9.0 0.00 0.19 0.00 87 1010.4
20260505035011 41 246 2.0 10.0 0.00 0.19 0.00 88 1010.3
20260505034517 41 198 3.0 10.0 0.00 0.19 0.00 88 1010.3
20260505034010 41 46 3.0 9.0 0.00 0.19 0.00 88 1010.2
20260505033517 40 224 3.0 9.0 0.00 0.19 0.00 88 1010.1
20260505033021 40 245 2.0 12.0 0.00 0.19 0.00 88 1010.1
20260505032518 40 220 2.0 12.0 0.00 0.19 0.00 88 1010.1
20260505032010 40 318 3.0 11.0 0.00 0.19 0.00 88 1010.0
20260505031517 41 233 2.0 7.0 0.00 0.19 0.00 88 1009.8
20260505031010 41 283 2.0 8.0 0.00 0.19 0.00 88 1009.6
20260505030518 40 92 1.0 9.0 0.00 0.19 0.00 88 1009.5
20260505030010 40 321 3.0 9.0 0.00 0.19 0.00 88 1009.6
20260505025517 40 262 3.0 10.0 0.00 0.19 0.19 88 1009.5
20260505025009 40 216 3.0 10.0 0.00 0.19 0.19 88 1009.4
20260505024518 40 223 3.0 11.0 0.00 0.19 0.19 88 1009.3
20260505024009 40 354 3.0 11.0 0.00 0.19 0.19 88 1009.2
20260505022510 40 261 3.0 11.0 0.00 0.19 0.19 88 1009.1
20260505022017 40 226 2.0 9.0 0.00 0.19 0.19 88 1009.1
20260505021510 40 205 2.0 8.0 0.00 0.19 0.19 88 1009.2
20260505021018 40 289 3.0 8.0 0.00 0.19 0.19 88 1008.9
20260505020510 40 19 3.0 7.0 0.00 0.19 0.19 89 1008.9
20260505020017 40 240 2.0 7.0 0.00 0.19 0.19 89 1008.6
20260505015509 40 211 2.0 10.0 0.00 0.23 0.19 88 1008.7
20260505014010 40 285 2.0 7.0 0.00 0.23 0.19 88 1008.7
20260505013517 40 101 2.0 10.0 0.00 0.23 0.19 88 1008.6
20260505013009 41 214 3.0 10.0 0.00 0.23 0.19 88 1008.5
20260505012519 41 265 2.0 14.0 0.00 0.23 0.19 89 1008.4
20260505012011 40 250 4.0 14.0 0.00 0.23 0.19 89 1008.5
20260505011522 40 304 3.0 10.0 0.00 0.23 0.19 89 1008.5
20260505011010 40 199 2.0 9.0 0.00 0.23 0.19 89 1008.4
20260505010517 40 347 1.0 9.0 0.00 0.23 0.19 88 1008.5
20260505010010 40 257 2.0 9.0 0.00 0.23 0.19 88 1008.4
20260505004017 41 250 3.0 8.0 0.00 0.25 0.19 87 1008.2
20260505003510 41 19 3.0 11.0 0.00 0.25 0.19 87 1008.1
20260505003017 41 212 3.0 13.0 0.00 0.25 0.19 87 1008.1
20260505002510 41 237 4.0 11.0 0.00 0.25 0.19 87 1008.2
20260505002017 41 229 2.0 9.0 0.00 0.25 0.19 87 1008.1
20260505001511 41 29 3.0 6.0 0.00 0.25 0.19 87 1008.1
20260505000010 41 250 2.0 8.0 0.00 0.25 0.19 87 1007.8
20260504235529 41 215 3.0 9.0 0.00 0.29 0.19 87 1007.9
20260504235011 41 271 2.0 11.0 0.00 0.29 0.19 87 1007.8
20260504234517 41 274 3.0 12.0 0.00 0.29 0.19 87 1007.7
20260504234013 41 4 4.0 12.0 0.00 0.29 0.19 87 1007.7
20260504232510 41 149 4.0 11.0 0.00 0.29 0.19 86 1007.6
20260504232018 42 290 4.0 11.0 0.00 0.29 0.19 86 1007.4
20260504231521 42 269 4.0 14.0 0.00 0.29 0.19 85 1007.5
20260504231018 42 277 5.0 14.0 0.00 0.29 0.19 85 1007.3
20260504230511 42 233 3.0 11.0 0.00 0.29 0.19 84 1007.4
20260504230022 42 282 5.0 14.0 0.00 0.29 0.19 84 1007.2
20260504225510 42 113 4.0 14.0 0.00 0.32 0.19 83 1007.4
20260504223517 42 203 2.0 11.0 0.00 0.32 0.19 83 1007.2
20260504223010 42 201 5.0 11.0 0.00 0.32 0.19 83 1007.1
20260504222519 42 34 2.0 11.0 0.00 0.32 0.19 83 1007.0
20260504222010 42 235 4.0 13.0 0.00 0.32 0.19 82 1006.9
20260504221518 42 280 4.0 14.0 0.00 0.32 0.19 82 1006.8
20260504221010 42 309 3.0 14.0 0.00 0.32 0.19 82 1006.7
20260504220517 42 39 5.0 13.0 0.00 0.32 0.19 81 1006.6
20260504220015 43 231 4.0 11.0 0.00 0.32 0.19 81 1006.6
20260504214017 44 208 4.0 15.0 0.00 0.35 0.19 78 1006.3
20260504213510 44 273 4.0 15.0 0.00 0.35 0.19 77 1006.4
20260504213022 44 231 6.0 16.0 0.00 0.35 0.19 77 1006.5
20260504212511 45 127 5.0 16.0 0.00 0.35 0.19 76 1006.5
20260504210518 45 290 4.0 22.0 0.00 0.35 0.19 76 1006.3
20260504210010 45 205 6.0 22.0 0.00 0.35 0.19 75 1006.3
20260504205517 45 357 4.0 14.0 0.00 0.41 0.19 75 1006.2
20260504205015 46 209 6.0 17.0 0.00 0.41 0.19 75 1006.2
20260504204518 45 305 7.0 17.0 0.00 0.41 0.19 75 1006.1
20260504204021 46 295 6.0 14.0 0.00 0.41 0.19 74 1006.0
20260504202010 47 270 6.0 15.0 0.00 0.41 0.19 72 1005.8
20260504201523 47 249 5.0 19.0 0.00 0.41 0.19 71 1005.7
20260504201010 48 276 7.0 19.0 0.00 0.41 0.19 70 1005.5
20260504200518 48 189 5.0 14.0 0.00 0.41 0.19 70 1005.4
20260504200011 48 169 4.0 14.0 0.00 0.41 0.19 69 1005.3
20260504195518 48 278 5.0 14.0 0.00 0.55 0.19 69 1005.3
20260504195021 48 223 4.0 17.0 0.00 0.55 0.19 68 1005.2
20260504194518 49 225 7.0 17.0 0.00 0.55 0.19 67 1005.0
20260504194011 49 334 4.0 12.0 0.00 0.55 0.19 67 1005.0
20260504193522 49 13 4.0 14.0 0.00 0.55 0.19 69 1004.9
20260504193011 49 224 6.0 14.0 0.00 0.55 0.19 68 1004.9
20260504191017 49 263 5.0 18.0 0.00 0.55 0.19 69 1004.8
20260504190521 49 251 6.0 15.0 0.00 0.55 0.19 67 1004.7
20260504190023 49 236 6.0 16.0 0.00 0.55 0.19 67 1004.7
20260504185521 50 215 6.0 14.0 0.00 0.64 0.19 66 1004.7
20260504185017 50 217 5.0 16.0 0.00 0.64 0.19 68 1004.6
20260504184510 48 200 6.0 16.0 0.00 0.64 0.19 67 1004.5
20260504183010 50 27 5.0 17.0 0.00 0.64 0.19 64 1004.5
20260504182518 51 270 7.0 17.0 0.00 0.64 0.19 62 1004.4
20260504182010 52 241 10.0 17.0 0.00 0.64 0.19 56 1004.3
20260504181518 55 248 6.0 18.0 0.00 0.64 0.19 54 1004.2
20260504181021 59 255 8.0 18.0 0.00 0.64 0.19 43 1004.4
20260504180529 60 243 5.0 15.0 0.00 0.64 0.19 37 1004.1
20260504180010 60 278 7.0 19.0 0.00 0.64 0.19 36 1004.1
20260504174011 59 205 4.0 16.0 0.00 0.73 0.19 37 1004.0
20260504173518 58 307 7.0 18.0 0.00 0.73 0.19 37 1004.1